DW9758 Weather Reports


time (UTC)temp
F
wind
direction
speed
knots
gust
knots
rain 1hr
in
rain 24hr
in
rain mn
in
humidity
%
barometer
mb
20221208003022 29 229 0.0 0.0 0.00 0.01 0.00 85 1013.4
20221208001523 29 229 0.0 0.0 0.00 0.01 0.00 85 1013.5
20221208000019 30 229 0.0 0.0 0.00 0.01 0.00 85 1013.7
20221207234517 30 229 0.0 0.0 0.00 0.01 0.00 85 1014.1
20221207233016 30 229 0.0 0.0 0.00 0.01 0.00 84 1014.1
20221207231517 30 270 0.0 0.0 0.00 0.01 0.00 85 1014.2
20221207230013 30 270 0.0 0.0 0.00 0.01 0.00 84 1014.2
20221207224516 30 270 0.0 0.0 0.00 0.01 0.01 84 1014.4
20221207223010 30 270 0.0 0.0 0.00 0.01 0.01 84 1014.5
20221207221509 30 270 0.0 0.0 0.00 0.01 0.01 84 1014.7
20221207220018 30 270 0.0 0.0 0.00 0.01 0.01 84 1014.7
20221207214519 30 270 0.0 0.0 0.00 0.01 0.01 84 1014.8
20221207213007 30 270 0.0 0.0 0.00 0.01 0.01 84 1014.7
20221207211511 30 270 0.0 0.0 0.00 0.01 0.01 84 1014.9
20221207210004 30 270 0.0 0.0 0.00 0.01 0.01 84 1014.9
20221207204503 30 270 0.0 0.0 0.00 0.01 0.01 84 1014.9
20221207203002 30 270 0.0 0.0 0.00 0.01 0.01 84 1015.1
20221207201619 30 270 0.0 0.0 0.00 0.01 0.01 84 1015.3
20221207200059 30 270 0.0 0.0 0.00 0.01 0.01 84 1015.3
20221207194601 30 270 0.0 0.0 0.00 0.01 0.01 84 1015.4
20221207193059 30 270 0.0 0.0 0.00 0.01 0.01 84 1015.4
20221207191559 30 270 0.0 0.0 0.00 0.01 0.01 84 1015.5
20221207190131 30 270 0.0 0.9 0.00 0.01 0.01 83 1015.9
20221207184555 30 265 0.0 0.0 0.00 0.01 0.01 82 1015.9
20221207183055 30 265 0.0 0.0 0.00 0.01 0.01 81 1016.0
20221207181553 31 265 0.0 0.0 0.00 0.01 0.01 81 1016.1
20221207180052 31 265 0.0 0.0 0.00 0.01 0.01 81 1016.1
20221207174550 31 265 0.0 0.0 0.00 0.01 0.01 81 1016.2
20221207173050 31 265 0.0 0.0 0.00 0.01 0.01 81 1016.2
20221207171555 31 266 0.0 0.0 0.00 0.01 0.01 81 1016.2
20221207170048 31 270 0.0 0.0 0.00 0.01 0.01 81 1016.4
20221207164546 31 270 0.0 0.0 0.00 0.01 0.01 81 1016.4
20221207163049 31 270 0.0 0.0 0.00 0.01 0.01 82 1016.6
20221207161545 31 270 0.0 2.6 0.00 0.01 0.01 82 1016.5
20221207160042 31 270 0.0 0.0 0.00 0.01 0.01 82 1016.6
20221207154540 31 270 0.0 0.0 0.00 0.01 0.01 82 1016.6
20221207153036 32 270 0.0 0.0 0.00 0.01 0.01 83 1016.6
20221207151531 32 280 0.0 3.5 0.00 0.01 0.01 83 1016.5
20221207150034 32 270 0.0 1.7 0.00 0.01 0.01 83 1016.6
20221207144533 32 261 0.9 2.6 0.00 0.01 0.01 83 1016.5
20221207143029 32 245 1.7 4.3 0.00 0.01 0.01 83 1016.6
20221207141528 32 263 0.9 4.3 0.00 0.01 0.01 83 1016.6
20221207140028 32 248 0.0 3.5 0.00 0.01 0.01 83 1016.6
20221207134530 32 235 0.9 3.5 0.00 0.01 0.01 83 1016.6
20221207133026 33 243 0.9 2.6 0.00 0.01 0.01 83 1016.6
20221207131526 32 238 0.9 3.5 0.00 0.01 0.01 83 1016.7
20221207130025 32 234 0.0 1.7 0.00 0.01 0.01 83 1017.0
20221207124522 32 244 0.0 3.5 0.00 0.02 0.01 83 1017.2
20221207123020 32 207 0.0 2.6 0.00 0.02 0.01 83 1017.2
20221207121523 32 242 0.9 2.6 0.01 0.02 0.01 83 1017.3
20221207120017 32 198 0.0 0.9 0.01 0.02 0.01 82 1017.3
20221207114517 31 201 0.0 0.9 0.01 0.03 0.01 82 1017.5
20221207113013 31 203 0.0 0.9 0.01 0.03 0.01 82 1017.8
20221207111512 31 203 0.0 0.9 0.00 0.02 0.00 81 1017.9
20221207110008 31 239 0.0 1.7 0.00 0.02 0.00 81 1018.2
20221207104500 31 238 0.0 2.6 0.00 0.06 0.00 81 1018.4
20221207103102 30 232 0.0 3.5 0.00 0.06 0.00 81 1018.5
20221207101558 31 270 0.0 1.7 0.00 0.06 0.00 81 1018.6
20221207100053 31 270 0.0 0.0 0.00 0.06 0.00 81 1018.7
20221207094553 31 270 0.0 0.0 0.00 0.06 0.00 80 1018.8
20221207093059 30 270 0.0 0.0 0.00 0.06 0.00 80 1018.8
20221207091550 30 270 0.0 0.0 0.00 0.06 0.00 80 1018.8
20221207090048 29 270 0.0 0.0 0.00 0.06 0.00 81 1018.7
20221207084549 29 270 0.0 0.0 0.00 0.06 0.00 81 1018.7
20221207083038 29 270 0.0 0.0 0.00 0.06 0.00 81 1018.9
20221207081546 29 270 0.0 0.0 0.00 0.06 0.00 81 1018.8
20221207080036 29 270 0.0 0.0 0.00 0.06 0.00 81 1018.8
20221207074535 29 270 0.0 0.0 0.00 0.06 0.00 81 1018.7
20221207073041 29 270 0.0 0.9 0.00 0.06 0.00 81 1018.5
20221207071533 29 270 0.0 1.7 0.00 0.06 0.00 81 1018.5
20221207070037 28 270 0.0 0.0 0.00 0.06 0.00 81 1018.5
20221207064549 28 270 0.0 0.0 0.00 0.06 0.00 82 1018.5
20221207063043 28 270 0.0 0.0 0.00 0.06 0.00 82 1018.6
20221207061530 28 270 0.0 0.0 0.00 0.06 0.00 82 1018.6
20221207060038 28 270 0.0 0.0 0.00 0.06 0.00 82 1018.5
20221207054527 28 270 0.0 0.9 0.00 0.06 0.00 82 1018.4
20221207053029 28 270 0.0 0.0 0.00 0.06 0.00 82 1018.5
20221207051532 28 270 0.0 2.6 0.00 0.06 0.00 82 1018.6
20221207050024 27 123 0.0 0.0 0.00 0.06 0.00 83 1018.5
20221207044536 27 123 0.0 0.0 0.00 0.06 0.00 83 1018.4
20221207043023 27 123 0.0 0.0 0.00 0.06 0.00 83 1018.4
20221207041627 27 123 0.0 0.0 0.00 0.06 0.00 83 1018.3
20221207040023 27 123 0.0 0.0 0.00 0.06 0.00 83 1018.2
20221207034522 27 123 0.0 0.0 0.00 0.06 0.00 84 1018.4
20221207033021 27 123 0.0 0.0 0.00 0.06 0.00 84 1018.4
20221207031520 28 123 0.0 0.0 0.00 0.06 0.00 83 1018.4
20221207030020 27 123 0.0 0.0 0.00 0.06 0.00 84 1018.4
20221207024517 27 123 0.0 0.0 0.00 0.06 0.00 83 1018.4
20221207023019 27 123 0.0 0.0 0.00 0.06 0.00 84 1018.5
20221207021515 27 123 0.0 0.0 0.00 0.06 0.00 83 1018.7
20221207020013 26 123 0.0 0.0 0.00 0.06 0.00 84 1018.8
20221207014530 26 123 0.0 0.0 0.00 0.06 0.00 83 1018.9
20221207013009 26 123 0.0 0.0 0.00 0.06 0.00 83 1018.9
20221207011508 25 123 0.0 0.0 0.00 0.06 0.00 84 1018.9
20221207010008 24 123 0.0 0.0 0.00 0.06 0.00 84 1019.0
20221207004519 24 123 0.0 0.0 0.00 0.06 0.00 84 1019.0